Temperature
17 17 17 17 17 17 17 17 17 17 17 17 17 17 17 17 16 16 16 16 17 16 16 16 16 16 16 16 16 16 15 15 15 15 15 15 15 14
17 17 17 17 17 17 17 17 17 16 16 17 17 17 16 16 16 16 16 16 16 16 16 16 16 16 15 15 15 15 15 15 15 15 15 14 14 14
16 16 16 16 16 16 16 16 16 16 16 16 16 16 16 16 16 16 16 15 16 16 16 15 15 15 15 15 15 15 15 15 14 14 14 14 14 14
16 16 16 16 16 16 16 16 16 16 15 15 16 15 15 15 15 15 15 15 15 15 15 15 15 15 15 14 14 14 14 14 14 14 14 14 14 13
16 16 16 15 15 15 15 15 15 15 15 15 15 15 15 15 15 15 15 15 14 14 14 14 14 14 14 14 14 14 14 14 14 13 13 13 13 13
15 15 15 15 15 15 15 15 15 15 15 15 14 14 14 14 14 14 14 14 14 13 13 13 13 13 13 13 13 13 13 13 13 13 13 13 12 12
15 15 15 15 15 14 14 14 14 14 14 14 14 14 14 14 13 13 13 13 13 13 13 13 12 12 12 12 12 12 12 12 12 12 12 12 12 12
14 14 14 14 14 14 14 14 14 14 13 13 13 13 13 13 13 13 13 13 12 12 12 12 12 12 12 11 11 11 11 11 11 11 11 11 11 11
14 14 13 13 13 13 13 13 13 13 13 13 12 12 12 12 12 12 12 12 11 11 11 11 11 11 11 11 11 10 10 10 10 10 10 10 10 10
13 13 13 13 13 13 12 12 12 12 12 12 12 11 11 12 11 11 11 11 11 11 10 11 10 10 10 10 10 10 10 10 9 9 9 9 9 9
12 12 12 12 12 12 12 12 11 11 11 11 11 11 11 11 11 11 11 11 11 11 10 10 10 10 10 9 9 9 9 9 9 9 9 9 9 9
12 12 12 12 11 11 11 11 11 11 10 10 10 10 10 10 10 10 10 10 10 10 9 9 9 9 9 9 9 9 9 8 8 8 8 8 8 8
11 11 11 11 11 11 11 10 10 10 10 10 10 10 9 9 9 9 9 9 9 9 9 8 9 9 9 9 9 8 8 8 8 8 8 7 7 7
10 10 10 10 10 10 10 10 10 10 10 10 10 9 9 9 8 8 8 8 8 8 8 7 8 8 8 9 9 8 8 8 7 7 7 7 7 7
10 10 10 10 9 9 9 9 9 9 9 9 9 9 8 8 8 8 8 8 8 7 7 7 7 7 8 8 8 8 8 7 7 7 7 7 7 6
9 9 9 9 9 9 9 9 8 8 8 8 8 8 8 8 8 8 8 8 8 8 7 7 7 7 7 7 7 7 7 7 7 7 6 6 6 6
9 9 9 9 9 8 8 8 8 8 8 8 8 8 8 8 7 7 7 8 8 8 7 7 7 7 7 7 7 7 7 6 6 6 6 6 6 6
9 9 9 9 8 8 8 8 7 7 7 7 7 7 7 7 7 7 7 7 7 7 7 7 7 7 7 7 6 6 6 6 6 5 5 6 6 5
9 8 8 8 8 8 8 7 7 6 6 6 7 7 7 7 7 7 7 7 7 7 7 6 6 7 7 7 6 5 5 5 5 5 5 5 5 5
8 8 8 7 7 7 7 7 6 6 6 6 6 6 6 6 6 6 6 6 6 6 6 6 6 5 6 6 5 5 5 4 4 4 5 5 5 4
8 7 7 7 6 6 6 6 6 6 5 6 6 5 6 6 6 6 6 5 6 6 6 6 5 5 5 5 5 5 5 4 4 4 4 4 4 4
7 7 6 6 6 6 6 6 6 5 5 5 5 5 5 5 5 5 5 5 6 6 5 5 5 5 5 5 5 5 5 4 4 4 4 3 3 3
6 6 6 6 5 5 5 5 5 5 5 5 5 5 5 5 5 5 5 5 5 5 5 5 5 5 5 5 5 5 5 5 5 4 4 3 3 3
Wind_Speed
9 9 8 7 7 7 7 7 7 8 7 5 4 3 3 3 2 4 5 4 7 8 9 10 11 11 11 12 12 13 13 13 14 14 14 14 14 13
7 8 8 7 6 6 6 6 6 7 7 5 3 3 2 3 2 3 4 2 4 5 6 7 8 8 8 9 9 10 11 11 12 12 12 11 11 12
8 8 8 7 6 5 5 5 6 6 7 6 4 3 2 4 3 3 4 4 3 4 5 5 5 6 7 7 7 8 8 8 9 9 9 9 9 9
6 6 6 5 6 5 5 5 5 5 6 6 4 3 3 3 3 4 3 3 2 2 4 4 4 4 4 4 3 3 4 5 5 6 7 7 7 7
4 4 4 4 4 4 4 4 4 4 4 5 4 3 2 2 2 2 2 2 2 1 2 3 3 3 3 3 2 1 2 2 3 4 5 6 6 6
1 1 1 2 3 3 3 3 3 3 3 4 4 3 2 2 2 2 2 1 2 2 2 2 3 5 5 4 3 2 1 0 1 2 3 4 5 5
2 2 2 3 4 3 1 1 1 2 2 2 2 2 2 2 2 3 2 1 1 3 3 3 2 2 3 5 5 5 4 3 2 1 0 1 2 3
4 4 4 5 6 6 7 7 5 2 2 1 1 1 2 3 3 3 3 2 2 4 4 4 5 5 5 6 9 9 7 6 5 4 3 2 1 1
6 5 4 5 5 5 6 7 7 7 5 3 3 3 3 3 3 3 3 3 3 3 4 4 4 4 4 8 10 10 9 8 7 7 6 6 5 4
8 7 6 5 5 4 5 6 7 7 6 5 5 5 5 5 3 2 1 1 1 4 5 3 3 4 4 5 9 9 8 8 7 7 7 6 5 4
10 10 8 8 9 6 6 7 7 7 10 11 10 9 10 10 8 4 4 3 3 3 5 4 3 3 2 2 5 7 7 7 6 5 5 4 4 3
9 10 13 11 12 10 7 7 7 6 6 7 7 7 8 9 9 7 5 4 3 3 4 4 3 3 2 1 1 2 3 5 5 3 2 2 4 5
8 8 9 12 12 11 9 8 6 4 5 5 5 6 6 6 7 8 7 6 5 4 4 4 3 3 2 2 1 2 2 1 1 1 2 2 1 4
8 8 8 10 12 11 9 7 4 2 4 4 5 6 6 6 6 7 7 7 6 4 5 5 4 4 4 3 2 2 2 2 3 4 4 1 3 3
9 10 7 5 7 9 9 6 4 5 5 5 6 6 5 5 4 3 4 3 3 4 6 6 5 5 4 4 4 4 4 4 4 5 5 4 4 3
8 8 7 6 6 6 5 6 7 7 6 6 5 5 4 4 4 5 4 4 3 3 5 5 5 5 4 4 4 4 5 4 5 5 6 5 4 4
4 4 5 6 7 7 7 7 7 6 6 6 5 4 4 4 5 5 4 4 4 4 4 3 3 3 3 5 5 5 5 5 5 6 6 5 3 4
3 6 6 6 6 7 6 6 6 6 6 5 5 5 5 4 4 4 4 5 5 5 5 5 5 3 1 3 5 6 6 6 6 6 6 6 4 4
4 7 6 6 6 6 6 6 6 6 5 5 5 5 5 4 4 5 5 5 5 5 5 6 6 7 6 4 3 5 7 7 7 6 6 6 5 4
6 6 6 6 6 6 6 6 5 5 5 5 5 5 5 5 5 5 5 6 6 6 5 5 6 7 7 7 5 4 5 7 8 7 7 6 4 2
6 6 6 6 6 6 5 5 5 5 5 5 5 5 5 5 5 5 5 4 5 6 6 6 6 5 5 5 5 4 4 3 4 6 8 7 6 5
6 6 6 6 5 5 5 5 5 5 4 4 5 5 5 5 5 6 6 6 5 6 6 5 4 5 5 5 6 5 5 4 1 1 1 3 6 6
5 5 5 4 5 4 4 5 5 5 5 5 5 5 5 5 5 5 6 6 6 6 6 6 6 5 5 5 6 6 6 6 5 3 1 4 4 6
Wind_Direction
242 241 243 251 253 253 251 253 257 265 267 258 249 252 253 255 263 258 264 227 224 232 235 237 239 237 237 241 242 241 240 240 241 242 243 246 248 248
245 248 244 246 243 246 246 246 247 253 264 274 263 279 288 270 211 256 259 199 208 223 226 229 231 232 235 238 238 239 239 240 241 240 241 243 244 247
241 239 238 245 245 243 241 240 242 240 250 265 265 275 274 286 297 278 265 254 226 205 211 214 223 229 233 235 236 234 235 237 238 238 238 239 241 244
245 244 247 243 239 243 239 239 243 247 247 258 268 264 256 266 280 283 286 275 263 173 194 202 213 221 223 224 223 228 233 235 238 240 241 243 244 247
248 246 251 253 247 239 238 242 247 248 248 250 260 266 265 274 274 279 295 315 285 163 162 173 178 181 174 170 167 188 227 236 241 243 245 246 247 248
235 245 283 269 259 246 237 242 246 253 251 254 262 268 276 300 289 281 296 311 317 350 23 72 111 134 125 111 106 110 111 271 258 251 256 258 256 255
76 65 51 49 38 17 343 330 291 272 266 268 280 299 329 340 330 329 327 343 35 23 14 21 47 59 99 98 77 64 61 49 28 16 327 268 265 263
68 68 71 66 72 72 59 52 35 6 333 315 330 358 2 350 346 344 350 353 11 23 5 19 31 35 42 58 64 65 59 55 53 51 44 39 37 0
60 59 59 58 62 82 86 84 63 47 33 23 39 21 17 6 356 4 21 10 7 10 2 16 27 34 43 70 76 69 63 59 60 63 63 61 60 60
61 58 60 58 52 61 77 73 64 50 45 51 52 38 35 15 353 354 15 50 78 46 8 1 9 15 35 69 85 80 72 68 67 64 62 58 49 35
61 52 53 62 38 40 79 78 74 72 71 73 72 70 63 50 30 29 28 19 21 31 16 356 352 3 16 62 96 105 96 87 77 69 59 45 17 334
73 63 54 53 42 38 69 75 75 67 68 75 76 73 65 61 54 40 25 18 9 19 20 349 342 340 340 25 44 111 110 124 133 130 107 33 345 313
79 70 58 51 52 46 53 65 60 53 72 70 67 61 58 50 44 41 29 20 18 21 15 349 341 338 329 322 339 358 360 9 23 159 179 174 313 322
80 78 73 65 65 58 59 50 19 359 67 65 59 52 46 44 42 38 38 37 34 29 14 356 341 336 326 322 335 349 352 354 348 340 342 196 215 215
84 81 81 88 97 79 65 34 25 49 53 57 56 51 48 44 33 41 54 57 57 43 33 10 350 342 329 332 338 342 340 345 349 343 336 332 334 337
100 111 115 83 82 85 80 57 50 44 39 48 49 47 42 40 32 23 16 15 26 52 51 27 10 348 339 343 333 337 340 337 341 343 334 326 337 352
90 92 74 67 61 59 58 53 47 46 46 44 41 38 33 31 30 24 11 7 15 15 21 23 18 9 5 344 343 349 342 342 346 348 323 320 345 7
48 78 68 60 53 51 51 53 51 45 39 37 36 30 24 20 18 14 6 6 8 8 7 2 352 337 305 70 23 350 346 343 339 334 324 325 339 10
77 75 68 59 54 50 47 46 45 42 28 30 29 22 14 10 13 14 11 5 3 3 4 1 357 349 340 353 36 20 350 339 332 334 335 331 334 348
71 70 66 60 53 46 43 40 38 35 29 25 23 16 9 8 8 7 14 3 352 352 357 5 7 359 348 341 338 355 9 346 341 338 336 329 334 354
69 65 59 55 50 47 41 35 32 32 24 14 20 11 6 2 3 358 3 1 335 348 350 0 10 322 309 311 316 343 9 32 354 337 337 332 335 331
70 67 62 55 49 43 38 31 31 31 22 18 17 5 3 1 1 356 354 349 348 349 343 344 343 328 329 330 330 337 345 345 304 189 345 343 340 335
65 63 62 56 48 36 31 30 24 23 20 13 7 1 359 359 355 353 349 347 346 343 336 337 338 334 331 328 328 334 342 338 343 340 15 159 198 235
Height
1549 1550 1550 1551 1552 1552 1553 1554 1555 1554 1553 1553 1554 1554 1554 1554 1553 1553 1553 1553 1553 1553 1553 1553 1553 1553 1553 1553 1554 1554 1554 1555 1555 1555 1555 1556 1556 1556
1544 1545 1545 1546 1547 1547 1548 1549 1549 1550 1549 1550 1550 1550 1550 1550 1549 1549 1549 1548 1548 1548 1548 1548 1548 1549 1548 1548 1548 1549 1549 1549 1550 1550 1550 1550 1550 1550
1539 1540 1540 1541 1542 1543 1543 1544 1545 1545 1545 1546 1546 1546 1546 1546 1546 1545 1545 1545 1544 1543 1543 1543 1543 1543 1543 1543 1543 1543 1543 1544 1544 1544 1545 1545 1545 1545
1536 1536 1536 1537 1537 1538 1539 1540 1541 1541 1542 1542 1542 1543 1542 1542 1542 1541 1541 1541 1540 1539 1539 1538 1538 1538 1538 1538 1538 1538 1538 1538 1539 1539 1539 1539 1539 1539
1532 1533 1533 1534 1534 1535 1536 1537 1537 1538 1538 1538 1538 1539 1539 1538 1538 1538 1537 1536 1536 1535 1534 1533 1533 1532 1532 1532 1532 1532 1533 1533 1533 1533 1533 1534 1534 1534
1529 1530 1530 1531 1532 1532 1533 1534 1534 1535 1535 1535 1535 1535 1535 1535 1534 1534 1533 1533 1532 1532 1530 1530 1528 1528 1527 1527 1528 1528 1528 1528 1528 1528 1528 1528 1528 1528
1527 1528 1528 1529 1530 1530 1531 1531 1532 1532 1532 1532 1533 1533 1532 1531 1531 1531 1530 1530 1529 1529 1528 1527 1526 1525 1524 1523 1523 1524 1524 1523 1523 1523 1523 1523 1523 1523
1527 1527 1528 1528 1528 1528 1529 1529 1530 1530 1530 1531 1531 1530 1530 1529 1529 1529 1528 1527 1527 1527 1526 1525 1524 1523 1522 1521 1520 1520 1520 1520 1519 1518 1518 1518 1518 1518
1527 1527 1528 1528 1528 1528 1528 1528 1528 1528 1529 1529 1529 1528 1528 1527 1527 1527 1526 1526 1525 1525 1524 1523 1523 1522 1521 1520 1519 1519 1518 1517 1516 1515 1515 1514 1514 1514
1528 1528 1528 1527 1527 1527 1528 1528 1527 1527 1527 1527 1527 1527 1527 1526 1526 1526 1525 1525 1524 1524 1523 1523 1522 1522 1521 1519 1518 1517 1516 1515 1514 1514 1513 1513 1512 1511
1530 1529 1529 1528 1528 1528 1528 1528 1528 1528 1528 1527 1526 1526 1526 1525 1525 1525 1524 1524 1524 1524 1523 1523 1522 1521 1520 1519 1518 1517 1516 1515 1514 1513 1512 1511 1510 1509
1531 1531 1530 1530 1530 1529 1529 1529 1529 1529 1529 1528 1527 1527 1527 1526 1525 1525 1525 1525 1525 1525 1523 1523 1522 1522 1521 1520 1519 1517 1516 1514 1513 1512 1510 1509 1508 1507
1534 1534 1533 1532 1531 1531 1531 1531 1530 1531 1531 1531 1530 1529 1529 1528 1527 1526 1526 1525 1525 1525 1524 1523 1523 1522 1521 1520 1519 1518 1517 1515 1514 1512 1510 1508 1507 1506
1536 1536 1535 1535 1534 1533 1533 1533 1533 1533 1533 1533 1532 1531 1531 1530 1529 1528 1526 1525 1525 1525 1523 1523 1522 1521 1521 1519 1519 1517 1516 1515 1513 1512 1510 1508 1506 1504
1538 1538 1538 1537 1537 1536 1535 1535 1535 1536 1535 1534 1534 1533 1532 1531 1530 1529 1528 1527 1526 1525 1524 1522 1522 1521 1520 1520 1518 1517 1515 1514 1513 1511 1509 1507 1506 1504
1541 1540 1540 1540 1539 1539 1538 1538 1537 1536 1536 1536 1535 1534 1534 1533 1532 1531 1530 1529 1528 1527 1525 1523 1521 1520 1520 1518 1518 1516 1515 1513 1512 1510 1508 1506 1504 1503
1543 1544 1544 1544 1543 1542 1541 1540 1539 1538 1538 1537 1536 1536 1535 1534 1533 1532 1530 1530 1529 1527 1526 1524 1522 1520 1518 1518 1517 1516 1514 1512 1510 1508 1506 1504 1503 1501
1546 1546 1546 1545 1544 1544 1543 1542 1541 1540 1539 1538 1538 1537 1536 1535 1534 1533 1532 1531 1529 1528 1526 1524 1523 1521 1519 1517 1516 1515 1513 1511 1509 1507 1505 1503 1501 1499
1548 1548 1547 1547 1546 1545 1545 1544 1543 1542 1540 1540 1539 1538 1537 1536 1535 1534 1532 1531 1530 1528 1526 1525 1523 1521 1519 1517 1515 1514 1512 1510 1508 1506 1503 1501 1499 1498
1549 1549 1549 1548 1548 1547 1546 1545 1545 1543 1542 1541 1540 1539 1538 1537 1536 1534 1533 1531 1530 1528 1527 1525 1523 1521 1519 1518 1516 1513 1510 1509 1507 1504 1502 1500 1498 1496
1551 1551 1550 1550 1549 1548 1547 1547 1546 1545 1543 1543 1542 1540 1539 1538 1536 1535 1533 1531 1530 1529 1527 1525 1522 1520 1518 1517 1515 1513 1510 1507 1505 1503 1500 1498 1496 1494
1552 1552 1551 1551 1550 1550 1549 1548 1547 1546 1545 1544 1542 1541 1540 1538 1537 1535 1534 1532 1530 1528 1527 1525 1522 1520 1519 1517 1514 1512 1509 1507 1504 1501 1498 1497 1495 1493
1553 1553 1553 1552 1552 1551 1550 1549 1548 1547 1546 1544 1543 1541 1540 1538 1537 1535 1534 1532 1530 1528 1526 1524 1522 1520 1518 1516 1514 1511 1509 1506 1504 1501 1499 1496 1494 1491